Temp
71 63 60 66 70 71 71 70 69 76 83 80 78 77 82 86 87 85 86 87 88 89 94 96 93 93 92 85 84 80 78 77 77 76 75 74 72 72 74 74 73 73 73 73
66 59 69 73 74 72 71 67 67 74 80 79 78 77 82 84 84 85 86 86 87 88 91 92 91 90 87 86 84 82 80 78 78 77 76 75 74 72 73 72 72 72 71 71
61 67 73 71 70 68 69 67 68 68 75 77 75 72 76 83 86 86 87 88 89 88 88 90 89 87 85 84 83 82 82 79 76 76 75 74 72 71 71 70 69 69 70 70
65 73 71 70 67 70 63 74 73 70 67 59 74 58 72 78 80 83 83 83 85 87 90 91 90 87 84 84 84 84 82 78 75 75 73 72 70 69 70 69 68 68 69 68
60 64 66 66 68 73 67 73 71 70 66 65 66 60 67 76 74 79 83 83 84 86 88 89 91 90 87 84 82 82 78 75 74 73 73 71 68 71 70 69 66 66 66 67
63 73 71 69 74 74 76 71 70 69 65 53 62 62 63 69 74 79 84 86 85 87 86 89 91 91 86 80 79 80 76 73 72 73 71 69 68 69 68 66 65 65 64 64
57 61 69 71 63 71 70 62 50 49 50 48 65 61 64 74 78 82 82 86 85 85 83 86 89 89 86 79 78 75 75 72 73 72 71 70 70 69 67 65 65 64 63 62
49 46 61 69 64 61 62 62 48 39 44 51 64 55 65 78 82 85 86 88 85 82 80 83 87 86 85 78 77 75 73 71 70 71 70 71 71 70 68 67 67 65 64 63
48 50 67 68 69 66 59 53 66 53 54 48 56 65 75 79 79 81 84 85 80 79 81 85 86 83 82 79 76 72 71 68 67 69 68 67 67 68 67 66 66 65 63 64
55 46 61 65 69 67 61 66 50 50 34 34 48 54 59 69 73 79 80 81 81 81 80 81 84 82 82 79 73 69 67 65 65 63 64 65 64 64 66 65 63 62 60 60
61 51 49 60 58 57 58 55 57 53 44 35 37 47 67 69 73 75 79 82 81 81 80 79 82 81 80 71 69 67 67 64 63 63 63 63 63 63 64 63 62 60 59 60
55 48 43 45 62 67 63 58 58 44 41 45 43 48 71 71 73 74 75 81 82 82 80 80 79 78 74 68 67 65 65 63 63 63 63 63 62 64 61 61 60 59 58 59
52 42 35 43 51 59 55 60 60 51 54 46 40 45 67 70 72 75 75 79 79 79 80 79 77 77 75 71 68 66 64 63 64 64 63 60 62 60 60 60 59 60 58 57
54 40 36 33 42 49 48 56 60 55 43 47 49 52 60 67 71 73 73 74 77 76 78 79 76 76 75 71 69 67 66 65 64 64 63 60 60 60 59 59 58 57 57 56
55 43 45 46 46 50 51 51 54 55 54 48 53 56 61 66 71 73 76 77 76 75 75 77 75 74 74 71 69 67 64 64 64 62 61 59 59 59 57 56 55 55 56 56
56 40 44 37 46 46 43 51 55 56 57 58 60 59 70 72 75 74 75 77 75 75 76 77 76 75 73 71 69 67 64 63 63 61 59 60 58 57 55 54 53 53 53 54
42 42 37 31 43 38 30 46 51 56 61 57 51 61 69 69 70 72 74 75 75 77 75 75 75 75 72 71 70 67 65 64 62 61 60 59 57 54 53 53 53 51 51 51
38 35 37 30 37 24 44 54 53 54 59 64 65 64 66 67 71 75 77 76 75 78 77 75 74 75 73 73 70 69 67 64 62 61 60 58 54 53 53 52 51 50 50 50
49 39 32 29 31 38 44 51 52 51 52 63 63 67 70 73 72 71 78 79 78 78 80 78 78 76 75 72 70 68 66 65 63 60 57 55 53 51 51 49 49 49 49 49
49 44 35 32 26 24 42 53 59 59 36 54 65 65 65 68 57 65 75 77 78 80 81 81 79 78 73 71 70 67 64 62 61 58 55 54 52 50 49 48 47 48 48 48
37 36 32 33 29 36 51 57 60 38 40 60 62 61 62 62 67 72 76 75 78 79 80 81 80 77 72 71 68 64 62 59 59 56 53 52 50 49 48 48 47 46 47 47
36 34 33 33 29 27 57 55 44 52 59 62 58 57 59 66 70 73 74 71 73 73 76 79 76 72 71 69 66 62 59 58 54 51 49 48 48 49 48 45 45 46 46 43
34 41 37 40 40 53 58 55 57 56 57 57 56 56 59 64 67 69 67 67 68 67 67 72 71 68 67 66 65 60 51 50 48 46 46 47 47 46 46 43 43 42 43 40
47 52 39 39 48 52 55 58 59 57 55 60 54 53 53 60 62 64 66 67 64 62 59 62 63 61 59 60 58 49 48 47 45 41 40 41 40 41 42 40 40 39 39 38
47 49 45 45 50 53 54 56 57 57 55 54 57 55 53 58 60 64 62 60 59 57 55 53 51 50 50 50 46 47 46 44 41 39 38 37 36 37 39 38 38 37 38 39
50 47 41 40 51 51 52 56 57 51 53 54 54 57 60 55 56 56 58 56 55 52 52 49 48 47 47 46 45 44 44 43 40 37 37 38 37 36 36 34 33 36 35 35
MSLP
1007.41 1007.35 1005.64 1004.96 1004.79 1004.57 1003.66 1002.64 1001.58 1000.52 999.92 999.53 999.24 999.27 999.28 999.21 999.16 999.29 999.60 999.89 999.97 1000.08 1000.20 1000.20 1000.65 1001.31 1002.23 1003.59 1005.11 1006.53 1007.92 1009.28 1010.68 1011.14 1011.46 1011.98 1012.61 1013.30 1013.72 1014.11 1014.63 1015.07 1015.39 1015.57
1006.94 1005.19 1004.27 1004.55 1004.31 1003.62 1003.18 1002.45 1001.38 1001.08 1000.14 999.60 998.87 998.46 998.40 998.57 998.73 998.85 998.75 999.02 999.29 999.48 999.76 999.99 1000.32 1001.01 1001.77 1002.97 1004.25 1005.64 1006.96 1008.46 1009.54 1010.47 1011.05 1011.71 1012.37 1013.13 1013.66 1014.15 1014.67 1014.93 1015.26 1015.60
1005.45 1003.18 1004.55 1004.05 1003.55 1003.02 1002.29 1001.54 1001.25 1001.17 1000.87 1000.14 999.44 998.45 998.43 998.23 998.28 998.41 998.46 998.55 998.68 998.88 998.93 999.39 999.91 1000.69 1001.74 1002.54 1003.61 1004.82 1006.02 1007.48 1008.80 1009.89 1010.87 1011.59 1012.40 1012.95 1013.55 1014.19 1014.66 1014.97 1015.38 1015.74
1004.64 1004.17 1003.58 1003.04 1002.71 1002.44 1001.31 1001.50 1001.38 1001.16 1001.06 1000.29 1000.28 998.09 997.38 997.69 997.32 997.24 997.61 997.86 997.96 998.29 998.35 998.58 999.08 999.76 1000.79 1002.09 1003.15 1004.22 1005.30 1006.84 1008.19 1009.45 1010.32 1010.70 1011.39 1012.21 1013.13 1013.90 1014.54 1015.12 1015.42 1015.90
1004.28 1003.94 1003.24 1002.23 1001.66 1001.49 1000.80 1001.78 1001.45 1001.03 1000.74 1000.93 999.85 999.37 996.61 997.31 996.53 996.32 996.18 996.55 997.00 997.31 997.55 997.91 998.10 998.67 999.90 1001.14 1002.48 1003.67 1004.81 1006.54 1007.84 1008.75 1009.75 1010.33 1011.26 1011.92 1012.71 1013.65 1014.43 1015.20 1015.64 1015.86
1004.54 1003.63 1002.84 1001.63 1001.61 1001.47 1001.45 1001.16 1000.94 1001.09 1000.95 1000.15 998.08 999.33 995.64 996.30 995.98 995.61 995.36 995.33 995.58 996.25 996.69 997.10 997.47 998.01 999.08 1000.49 1002.04 1003.20 1004.68 1006.32 1007.45 1008.13 1009.25 1009.96 1010.73 1011.41 1012.29 1013.23 1014.20 1015.04 1015.66 1016.04
1004.71 1003.24 1002.53 1002.71 1002.17 1001.51 1001.35 1001.31 1000.63 1000.82 1000.37 998.79 998.78 998.83 995.80 995.65 995.47 994.61 994.19 994.38 994.53 995.37 995.91 996.22 996.76 997.57 998.48 1000.17 1001.44 1002.90 1004.33 1006.07 1006.94 1007.79 1008.66 1009.50 1010.22 1011.02 1011.81 1012.84 1013.75 1014.65 1015.49 1015.92
1004.46 1002.87 1002.40 1001.73 1001.22 1000.98 1001.14 1000.74 1000.72 1000.31 1000.05 999.40 999.02 997.95 994.51 995.19 994.73 994.11 993.96 993.58 993.68 994.84 995.41 995.77 996.10 996.93 997.90 999.64 1000.95 1002.30 1003.74 1005.49 1006.61 1007.52 1008.20 1008.92 1009.66 1010.43 1011.33 1012.37 1013.25 1014.14 1014.95 1015.64
1004.47 1002.31 1001.97 1000.98 1001.33 1001.94 1000.34 1001.01 1001.05 1001.22 1001.70 1001.22 999.14 996.72 994.74 994.39 993.62 993.35 993.17 993.07 993.77 994.34 994.83 995.21 995.65 996.31 997.52 999.26 1000.74 1001.95 1003.55 1005.26 1006.83 1007.41 1008.02 1008.77 1009.39 1010.10 1011.09 1012.09 1012.90 1013.74 1014.57 1015.48
1004.05 1003.07 1002.36 1000.96 1000.73 1000.43 1000.63 1001.13 1001.49 1001.47 1003.06 1002.33 1000.54 997.38 995.11 994.68 993.21 992.95 992.52 992.59 993.14 993.69 994.42 994.92 995.38 995.88 996.94 998.88 1000.97 1002.36 1003.27 1004.80 1006.99 1007.56 1008.04 1008.82 1009.48 1010.10 1011.00 1011.77 1012.63 1013.52 1014.48 1015.27
1003.97 1003.89 1002.69 1002.83 1000.52 1000.57 1000.70 1000.33 1001.03 1002.07 1004.20 1002.91 1001.53 997.89 996.13 995.26 993.54 992.97 992.55 991.80 992.13 992.93 994.01 994.71 995.24 995.60 996.89 999.28 1001.16 1002.42 1003.50 1004.42 1006.67 1007.93 1008.46 1008.88 1009.65 1010.10 1011.00 1011.53 1012.84 1013.46 1014.57 1015.26
1004.65 1005.06 1003.60 1001.97 1001.51 1000.40 1000.19 999.80 1000.21 1000.70 1001.95 1001.59 1000.91 997.34 995.37 994.27 993.75 993.25 992.72 991.74 991.47 992.48 993.57 994.32 994.91 995.91 997.74 999.60 1001.11 1002.53 1003.60 1004.46 1006.03 1007.20 1008.16 1009.06 1009.54 1009.99 1011.08 1011.59 1013.12 1013.67 1014.71 1015.40
1006.05 1005.94 1005.23 1002.44 1002.14 1000.89 999.80 999.24 999.63 1001.09 999.98 999.81 999.59 998.21 995.55 995.67 994.36 992.96 992.55 992.42 991.83 992.49 993.46 994.30 995.10 996.00 997.57 999.26 1000.85 1002.22 1003.57 1004.73 1005.91 1006.81 1007.59 1008.60 1009.41 1009.95 1011.00 1012.01 1012.78 1014.17 1014.61 1015.34
1005.86 1006.90 1006.46 1005.19 1003.31 1002.30 1000.77 999.29 998.75 999.17 999.20 998.55 997.68 997.29 994.51 994.66 993.94 992.55 992.72 992.56 992.47 992.92 993.44 994.29 995.25 996.10 997.26 998.85 1000.33 1002.01 1003.45 1004.58 1005.90 1006.62 1007.26 1008.14 1009.14 1009.86 1011.00 1011.87 1012.82 1014.18 1014.48 1015.14
1005.16 1005.27 1006.18 1005.62 1004.79 1003.16 1001.35 1000.23 998.88 997.18 997.49 996.87 996.50 995.80 993.49 994.29 993.88 993.27 992.81 992.69 992.97 993.44 993.58 994.07 994.80 995.96 997.14 998.50 999.99 1001.48 1003.28 1004.77 1005.88 1007.10 1007.52 1008.05 1008.91 1009.92 1010.97 1011.79 1013.14 1013.78 1014.48 1015.03
1005.47 1005.61 1005.57 1005.48 1005.10 1003.79 1002.10 1000.72 998.60 997.24 996.62 995.96 994.92 993.86 993.68 992.69 993.10 992.91 992.42 992.69 992.77 993.01 993.27 993.50 994.20 995.45 996.75 997.99 999.39 1000.90 1002.67 1004.25 1005.63 1006.93 1007.82 1008.14 1008.97 1010.06 1010.95 1012.10 1013.14 1013.73 1014.51 1015.09
1007.38 1006.95 1006.89 1006.05 1005.41 1004.48 1003.09 1000.54 999.34 997.00 995.45 995.20 994.25 993.52 992.44 992.39 992.29 991.96 991.98 991.73 991.98 992.50 992.87 993.34 993.75 994.74 995.84 997.01 998.47 1000.14 1001.95 1003.68 1005.18 1006.51 1007.49 1008.25 1009.10 1010.01 1011.09 1012.26 1012.94 1013.82 1014.51 1015.18
1007.56 1007.86 1007.13 1006.56 1006.23 1004.04 1001.56 1000.56 999.95 997.33 995.01 994.35 993.43 992.83 991.62 992.36 991.97 991.33 991.35 991.07 991.13 991.28 991.64 992.25 993.21 994.00 995.15 996.49 997.94 999.37 1001.19 1002.90 1004.34 1005.81 1007.04 1008.16 1009.17 1010.13 1011.29 1012.29 1012.95 1013.67 1014.32 1015.13
1006.20 1006.93 1006.39 1006.30 1004.45 1002.43 1000.49 999.90 998.70 997.32 995.16 994.38 993.46 992.16 990.83 990.83 991.11 990.97 990.50 990.27 990.25 990.20 990.56 990.93 991.66 992.99 994.49 995.91 997.43 998.80 1000.34 1001.94 1003.16 1004.71 1006.41 1007.86 1008.99 1010.21 1011.43 1012.21 1012.85 1013.53 1014.30 1014.65
1004.56 1005.69 1005.93 1004.83 1004.08 1001.86 999.03 998.86 998.87 997.34 996.41 995.14 993.14 991.98 990.94 991.80 991.08 989.52 989.09 989.74 989.56 989.62 989.58 989.75 990.74 991.73 993.28 994.97 996.91 998.54 999.96 1001.48 1002.90 1003.71 1005.81 1007.60 1009.02 1010.32 1011.46 1012.24 1012.85 1013.43 1014.10 1014.97
1003.69 1003.65 1003.90 1003.25 1002.81 1000.50 997.79 997.86 997.62 997.23 995.34 994.52 994.17 992.93 992.04 991.06 989.74 988.25 989.34 989.16 989.12 989.19 989.12 989.31 989.38 990.38 992.26 994.01 996.18 998.15 999.93 1001.55 1002.92 1004.50 1006.11 1007.73 1009.29 1010.66 1011.66 1012.33 1012.98 1013.45 1014.37 1015.44
1002.41 1002.53 1002.37 1002.64 1001.19 998.93 997.38 997.03 997.74 996.28 995.20 993.97 994.04 993.19 991.91 990.98 989.27 987.65 988.29 988.87 989.24 989.03 988.27 988.21 989.25 990.18 992.47 993.92 996.05 998.12 1000.06 1001.68 1003.61 1005.21 1007.04 1008.38 1009.90 1010.96 1011.82 1012.23 1012.99 1013.96 1014.84 1015.48
1000.79 1000.76 1000.68 1000.16 997.80 997.13 996.89 996.49 996.35 995.98 995.41 994.67 994.22 994.37 993.09 991.60 989.61 988.90 989.21 989.29 989.37 989.51 989.30 988.77 989.74 991.14 992.88 994.39 996.13 998.49 1001.32 1003.04 1004.39 1005.87 1007.54 1009.18 1010.58 1011.48 1011.60 1012.53 1013.51 1014.25 1014.85 1015.56
999.49 999.17 998.96 999.27 997.17 996.58 996.45 996.08 995.81 995.97 995.33 995.12 994.30 994.76 994.94 993.28 991.75 990.54 990.27 990.17 990.34 991.03 991.23 991.61 992.23 993.54 994.79 995.97 997.51 999.90 1001.91 1003.65 1005.11 1006.66 1008.34 1010.17 1011.25 1011.59 1012.45 1013.07 1013.60 1014.27 1014.90 1015.69
998.11 998.02 997.48 996.40 996.01 996.31 995.72 995.44 995.45 995.37 995.11 994.88 994.58 994.41 994.50 994.01 992.29 991.51 991.30 991.60 991.93 992.37 993.36 993.90 995.21 996.58 997.39 998.06 999.74 1001.19 1002.69 1004.07 1005.83 1007.58 1009.44 1010.83 1011.63 1012.37 1012.85 1013.59 1014.08 1014.48 1014.89 1015.45
997.07 996.55 996.03 995.28 995.57 995.35 994.86 994.83 994.90 994.70 994.29 994.81 994.74 993.79 993.36 993.05 993.03 993.96 993.18 993.04 993.49 994.26 994.83 995.94 996.99 998.09 999.45 1000.36 1001.50 1002.67 1003.70 1004.71 1006.34 1008.75 1010.23 1011.61 1012.14 1012.58 1013.20 1013.99 1014.76 1015.00 1015.38 1015.75
Wind_Speed
15 13 21 24 21 22 21 21 23 23 21 22 18 19 19 17 17 16 14 13 12 13 13 14 16 16 12 17 20 21 20 18 13 11 10 8 7 6 6 6 8 6 5 5
18 24 26 24 22 23 24 25 27 23 25 22 18 21 17 16 17 18 14 15 17 15 13 11 7 11 11 16 19 20 20 19 15 10 9 8 9 7 7 6 7 6 6 5
25 29 22 24 23 25 25 25 20 23 21 23 22 24 23 22 20 17 16 15 17 17 15 14 13 9 11 11 15 19 20 19 15 12 10 8 6 6 6 7 5 5 7 5
25 27 27 25 26 25 25 23 24 24 21 18 19 22 21 21 23 23 21 20 19 18 18 13 12 15 18 15 10 17 19 20 16 15 13 14 12 11 8 7 5 5 7 6
18 24 27 29 27 24 26 20 25 24 20 21 27 19 14 16 21 20 19 25 19 23 20 18 16 15 21 18 15 14 16 19 18 18 13 11 10 8 8 7 10 7 6 7
26 25 28 29 23 26 24 24 23 22 17 19 33 19 23 18 19 18 23 20 19 14 13 16 14 10 21 17 14 13 18 18 18 18 17 16 16 12 11 10 9 7 5 5
29 31 29 22 26 26 27 23 18 17 18 20 23 21 27 14 17 25 30 19 19 18 13 15 14 12 14 20 19 16 18 18 18 19 18 18 15 13 14 14 9 10 6 4
19 23 32 22 31 24 22 23 18 26 20 20 23 24 29 18 19 25 24 18 11 13 8 8 14 9 9 20 19 20 19 17 15 18 18 17 13 10 10 12 10 8 7 6
19 32 20 28 28 20 29 26 18 21 20 18 16 23 27 27 28 24 23 9 10 8 9 12 11 9 8 19 18 19 18 13 12 15 12 11 12 13 12 10 10 6 7 8
28 28 28 29 20 31 32 19 18 7 11 26 20 31 21 15 18 18 21 14 13 12 10 9 10 11 9 18 17 16 16 14 9 7 10 10 10 10 11 10 9 9 7 9
23 22 29 26 30 22 21 23 24 9 15 6 15 20 19 23 21 27 20 18 17 14 10 9 7 9 11 19 17 15 15 18 13 11 10 12 9 11 12 10 10 10 7 9
18 11 20 28 31 29 28 25 28 16 25 23 17 18 21 23 23 20 17 10 11 10 8 7 8 10 19 19 17 16 14 16 16 16 14 13 12 14 12 12 10 10 8 8
6 6 5 15 19 25 28 28 20 20 20 22 17 20 19 29 27 31 23 13 8 9 7 6 9 10 17 18 17 17 16 16 16 17 17 13 14 14 14 12 13 9 10 8
6 8 10 9 18 21 19 27 24 22 18 22 21 27 32 22 22 11 12 8 6 3 6 6 8 10 13 15 16 15 14 16 17 17 17 17 15 16 13 13 12 10 9 9
17 21 19 22 28 29 28 27 31 26 23 27 22 28 36 27 23 21 22 10 6 9 10 10 11 11 13 16 16 16 15 13 15 15 16 16 14 13 14 14 11 9 9 9
16 21 18 26 24 24 28 31 30 29 23 31 26 27 31 24 17 24 25 15 12 12 14 15 15 15 16 16 17 18 19 19 16 16 15 14 15 15 14 12 11 10 9 8
21 15 14 11 18 17 14 23 31 32 28 25 25 28 28 22 30 27 21 21 18 15 14 14 15 16 17 18 19 20 20 19 18 16 16 15 16 16 14 13 13 11 10 9
14 18 8 10 14 21 13 17 23 32 35 29 26 32 36 25 27 20 21 21 22 22 18 18 15 16 18 18 19 18 22 21 20 19 18 16 16 15 14 13 13 11 11 10
19 12 5 7 15 18 27 22 20 20 29 32 29 29 30 23 26 30 31 29 23 15 15 17 18 17 16 18 19 19 20 21 21 20 19 17 16 16 14 13 13 11 10 9
23 17 18 6 13 16 28 22 26 24 20 23 25 28 34 23 20 21 26 17 16 16 15 15 18 18 19 20 19 19 19 20 20 20 19 17 16 15 14 13 11 9 9 9
12 8 18 17 13 14 26 15 15 13 25 15 16 27 29 23 19 30 15 13 17 19 23 14 19 17 21 22 21 20 18 18 15 17 17 17 15 13 13 11 10 9 9 9
18 17 14 9 12 19 15 13 16 16 22 22 13 23 26 20 22 21 10 5 8 8 13 17 13 17 18 20 19 19 18 15 18 18 17 16 14 11 10 13 9 10 9 8
18 17 15 17 13 16 14 15 19 21 22 13 13 17 22 15 8 5 1 1 6 6 9 9 15 16 16 20 20 20 16 19 20 19 17 13 12 11 11 11 10 8 9 8
19 20 13 13 18 21 18 18 20 22 24 22 4 4 23 19 9 4 2 4 10 9 13 12 13 14 14 14 17 21 19 19 18 17 14 11 10 10 7 6 5 5 7 7
12 15 22 23 20 18 21 18 20 19 17 24 13 15 12 13 9 2 6 8 9 12 13 14 15 12 14 17 19 19 19 20 19 16 11 8 5 7 8 5 3 4 4 7
14 18 14 15 17 15 20 18 19 16 18 22 24 21 7 4 3 7 4 6 10 10 12 13 14 16 15 14 17 17 17 19 20 15 10 9 8 7 7 7 5 11 8 11
Wind_Direction
214 220 230 225 226 243 264 262 264 264 252 234 247 233 237 238 246 221 224 243 240 243 259 242 208 204 189 157 159 161 164 171 177 193 172 167 153 150 143 156 133 168 156 160
229 221 228 236 244 243 239 247 257 273 280 286 277 270 245 237 246 261 241 225 225 226 243 240 267 191 186 160 162 161 166 169 177 175 171 163 156 160 154 142 174 150 139 134
221 236 225 241 242 244 249 250 252 257 267 277 279 262 258 254 248 252 265 264 261 264 224 235 206 204 169 176 163 168 168 169 164 170 162 166 151 156 152 151 151 137 129 142
238 242 245 240 231 243 249 246 254 258 262 258 261 268 239 241 240 237 233 240 249 252 260 237 232 188 174 182 176 172 171 166 164 165 173 174 168 167 159 153 143 141 137 129
231 229 245 244 249 240 243 254 268 273 250 259 254 256 261 264 263 267 241 224 234 232 235 239 231 208 181 175 183 185 161 164 169 164 172 170 169 157 151 156 140 140 139 130
254 247 237 244 247 249 264 262 246 254 259 250 251 244 265 246 254 252 244 232 220 238 216 232 241 233 177 170 176 173 154 166 171 173 168 171 174 167 157 150 149 149 145 148
249 247 246 250 263 260 245 250 255 234 234 242 251 242 258 242 246 254 247 262 210 221 222 214 213 228 180 168 171 162 161 173 179 177 172 175 177 180 160 149 155 154 158 147
238 249 238 234 233 246 250 237 233 246 237 250 241 244 244 253 252 253 257 250 195 197 207 247 213 205 170 166 169 165 171 172 178 176 175 175 176 161 151 155 157 158 154 147
250 261 261 227 238 235 250 252 252 274 257 272 273 262 248 240 238 243 254 224 164 183 205 226 212 179 161 167 165 155 157 155 171 181 167 161 150 152 153 158 145 141 127 123
246 259 259 273 252 224 233 239 252 223 243 243 255 266 262 265 271 265 269 207 202 200 207 228 246 179 156 157 150 149 140 135 154 139 150 145 149 140 146 138 129 119 122 121
253 241 264 267 259 256 232 235 237 188 220 255 247 254 256 275 259 256 274 250 197 195 199 218 226 144 130 132 148 148 148 140 159 162 168 156 152 141 133 126 122 122 123 129
313 318 270 246 255 263 263 264 229 214 216 218 230 261 264 284 296 304 300 299 175 176 192 209 162 139 136 141 150 156 161 159 171 168 167 161 151 139 137 129 136 124 137 127
317 322 284 287 249 258 259 252 252 285 225 227 225 240 245 254 286 281 285 251 184 169 183 208 145 154 152 153 157 157 163 166 169 169 164 151 150 137 140 141 132 144 133 129
173 210 244 258 288 298 283 270 243 226 242 232 230 241 255 249 249 289 336 1 98 155 190 191 162 172 163 158 156 158 166 169 170 168 162 155 152 147 143 140 136 147 136 136
272 280 275 291 300 293 267 265 276 243 231 249 230 238 254 243 243 259 267 221 217 203 211 207 174 179 169 160 161 158 162 165 166 170 163 157 146 141 134 131 141 136 135 139
284 271 300 286 276 288 295 286 272 270 258 249 250 246 247 252 261 257 271 275 223 218 213 205 183 183 175 173 169 164 168 169 167 169 167 149 140 136 133 134 138 132 133 133
301 279 284 274 297 319 303 263 273 272 269 236 260 255 256 258 240 257 253 267 267 244 206 213 192 191 180 179 175 172 167 163 165 166 163 153 144 141 139 144 142 144 142 132
255 261 244 271 275 262 266 252 276 271 269 269 242 239 251 259 268 271 259 250 253 265 206 202 196 195 183 183 175 166 165 169 168 168 160 152 146 141 147 150 143 146 138 146
239 265 252 236 266 287 279 266 267 276 273 260 268 271 268 252 244 251 252 255 255 246 250 201 189 191 187 173 173 170 167 169 167 166 156 153 148 149 151 150 148 144 148 132
228 219 244 251 267 272 269 272 280 295 296 282 271 256 260 268 266 263 257 271 270 269 242 213 189 187 173 169 168 172 170 170 173 156 151 149 146 146 151 147 140 140 125 123
250 234 235 238 243 254 263 273 300 274 266 281 288 269 276 283 261 253 256 258 261 264 264 250 201 181 166 162 164 171 166 171 156 139 139 138 136 145 147 139 131 125 128 143
248 241 234 233 247 257 263 249 237 259 294 282 288 325 291 285 274 243 232 285 289 301 264 231 175 150 158 155 159 159 163 144 129 130 128 131 139 149 139 133 127 143 151 146
248 243 250 230 245 252 268 298 294 296 302 295 317 313 319 305 309 340 344 341 31 41 5 124 134 138 146 153 156 149 121 126 129 127 129 132 134 146 134 140 151 153 155 147
255 266 261 281 262 261 271 274 275 289 298 301 173 287 309 299 290 266 184 71 88 67 82 69 97 113 123 125 121 119 126 126 124 119 113 125 143 129 142 137 139 145 147 140
251 254 255 260 248 257 261 261 268 279 298 316 215 196 199 272 315 310 110 72 85 103 99 91 99 96 102 106 113 123 126 125 118 113 118 115 117 140 130 102 121 128 99 147
247 254 253 264 262 269 274 284 279 280 288 291 295 292 255 160 64 325 46 107 103 101 107 111 119 128 128 121 124 123 128 125 123 133 128 148 144 135 133 124 101 69 108 101